Weather in Khasaut-Grecheskoye

Russia / Karachay-Cherkess Republic     43°42′53″N   41°40′19″E
temp.,
°C
wind,
m/s
gust,
m/s
humid.,
%
clouds,
%
prec.,
mm/h
press.,
hPa
HPBL,
m
1 august, sun
sun100:00+14s32880 0.0 101539
03:00+13s32860 0.0 101438
06:00+14s22820 0.0 101543
09:00+22n11500 0.0 1013939
12:00+24n42443 0.0 10121706
15:00+24n425123 0.3 10121635
18:00+20nw018426 2.3 101354
21:00+15s33948 4.0 101545
2 august, mon
mon200:00+14s32930 0.0 101538
03:00+13s32910 0.0 101437
06:00+14s22880 0.3 101542
09:00+23n11570 0.4 1014677
12:00+24n325729 0.6 10131533
15:00+22w11806 4.8 1013321
18:00+19ssw228835 4.1 101433
21:00+15s33920 4.4 101543
3 august, tue
tue300:00+14s33900 0.0 101542
03:00+14s33860 0.0 101539
06:00+15s22810 0.0 101639
09:00+24n11510 0.0 1014998
12:00+26n32424 0.0 10131830
15:00+26n334416 0.0 10131904
18:00+24nne11653 0.2 101444
21:00+17s34790 0.3 101755
4 august, wed
wed400:00+16s34750 0.0 101751
03:00+16s32610 0.0 101834
06:00+15s33710 0.0 101849
09:00+24nne11470 0.0 1016635
12:00+26n32410 0.0 10151476
15:00+26n434315 0.0 10151682
18:00+24n126635 0.2 101678
21:00+17s33850 0.3 101843
5 august, thu
thu500:00+16s22840 0.0 101830
03:00+15s22760 0.0 101725
06:00+16s22770 0.0 101831
09:00+22nne21570 0.0 1017665
12:00+23n33631 0.3 1015950
15:00+25n325323 1.1 10151502
18:00+23nnw22704 0.1 1014397
21:00+17s22930 0.1 101528